Showing default

QIANFAN-45, 62246

Orbit data source: Space-Track

QIANFAN-45, 62246 is a Chinese payload satellite in LEO that was launched on Thu, 05 Dec 2024 UTC via a CHANG ZHENG 6A launch vehicle from the Taiyaun Space Center, China (TSC). Payload-class satellites include a variety of spacecraft equipped with specific instruments for various scientific and technological missions. These include communications satellites like Starlink; space stations such as the ISS; scientific satellites like the Hubble; Earth observation satellites from companies like Planet Labs, Umbra, and HawkEye 360; GPS; miniature CubeSats for education and research; and military/defense satellites.

Loading next visibility...
Identifier
62246, 2024-232K
Orbit
LEO
Country
Flag of CNCN / PRC
Related business
Manufacturer
SECM
Mission
Operational Commercial Communications
Bus & Motor
QIANFAN, Unknown motor
Mass
267 kg wet, ~267 kg dry
Launch date (UTC)
2024-12-05 (9 months ago)
Launch vehicle
CHANG ZHENG 6A
Launch site
Taiyaun Space Center, China (TSC)
Object type
Payload
Rocket body
Debris
Shape & HBR
Box + 1 Pan, 5.0 m
Radar Cross Section
13.200 m², Large (>1 m²)

Expand to show TLE details & history
Last TLE update: 11 hours ago

TLE from 11 hours ago
0 QIANFAN-45
1 62246U 24232K   25242.87409544  .00000083  00000-0  11016-3 0  9992
2 62246  88.9951  51.6946 0015899 129.0654 231.1914 13.50967935 85239
Epoch: 2025-08-30T20:58Z
TLE epoch observation values (Epoch: 2025-08-30T20:58:41.846Z)
Latitude
-0.00005°
Longitude
117.71811°
Altitude
1,079.086 km
Speed
7.309 km/s
True Right ascension
03h 26m 46s
True Declination
0° 00' 00"
Sunlit
Object was in daylight at epoch
Visualization orbit readout
Latitude
Unknown
Longitude
Unknown
Altitude
Unknown
Speed
Unknown
Apparent Right ascension
Unknown
Apparent Declination
Unknown
Sunlit
N/A
Visualization observer readout
Local Sidereal Time
23:51:45
Azimuth
Unknown
Elevation
Unknown
Doppler factor
Unknown
Orbital elements
Apogee altitude
1,077.586 km
Perigee altitude
1,053.915 km
Semi-major axis
7,443.888 km
Eccentricity
0.00159
Inclination
88.9951°
RAAN
51.6946°
Arg. of periapsis
129.0654°
True anomaly
231.04961°
Mean anomaly
231.1914°
Eccentric anomaly
231.12049°
Mean motion
3.37943 °/min
Orbital period
106.53 mins
BSTAR
0.00011016
Loading maneuver chart data...
Computing Atmospheric mass density...
Loading historical data...
Loading historical data...
Loading historical data...
Loading historical data...
Loading historical data...
Loading historical data...
Loading historical data...

Documentation

Showing up to 5 results
|